,,,PA_Meas_PMT16A,,PR_Meas_QMR101_102,,RH_Meas_QMH101,,SR_Meas_QMS101,,TA_Meas_QMH101,,GenWind,,GenWind,
date,time,status,PA,status,PR,status,RH,status,SR,status,TA,status,DirAvg,status,SpdAvg,
2011-08-12, 00:00:04,VALID,1004.19,VALID,0,INVALID,163.647,VALID,0,VALID,25.1813,VALID,13,VALID,0,
2011-08-12, 00:01:04,VALID,1004.18,VALID,0,INVALID,163.617,VALID,0,VALID,25.1618,VALID,328,VALID,0,
2011-08-12, 00:02:04,VALID,1004.2,VALID,0,INVALID,163.624,VALID,0,VALID,25.1618,VALID,335,VALID,0,
2011-08-12, 00:03:04,VALID,1004.17,VALID,0,INVALID,163.639,VALID,0,VALID,25.1423,VALID,10,VALID,0,
2011-08-12, 00:04:04,VALID,1004.18,VALID,0,INVALID,163.624,VALID,0,VALID,25.121,VALID,300,VALID,0,
2011-08-12, 00:05:04,VALID,1004.18,VALID,0,INVALID,163.609,VALID,0.100563,VALID,25.1618,VALID,334,VALID,0,
2011-08-12, 00:06:04,VALID,1004.1,VALID,0,INVALID,163.655,VALID,0,VALID,25.1229,VALID,353,VALID,0,
2011-08-12, 00:07:04,VALID,1004.11,VALID,0,INVALID,163.67,VALID,0,VALID,25.1442,VALID,327,VALID,0,
2011-08-12, 00:08:04,VALID,1004.09,VALID,0,INVALID,163.655,VALID,0,VALID,25.1034,VALID,303,VALID,0,
2011-08-12, 00:09:04,VALID,1004.06,VALID,0,INVALID,163.601,VALID,0,VALID,25.1034,VALID,359,VALID,0,
2011-08-12, 00:10:04,VALID,1004.1,VALID,0,INVALID,163.632,VALID,0.100563,VALID,25.0839,VALID,360,VALID,0,
2011-08-12, 00:11:04,VALID,1004.08,VALID,0,INVALID,163.639,VALID,0.100563,VALID,25.0644,VALID,286,VALID,0,
2011-08-12, 00:12:04,VALID,1004.1,VALID,0,INVALID,163.655,VALID,0,VALID,25.045,VALID,275,VALID,0,
2011-08-12, 00:13:04,VALID,1004.1,VALID,0,INVALID,163.655,VALID,0,VALID,25.0644,VALID,294,VALID,0,
2011-08-12, 00:14:04,VALID,1004.08,VALID,0,INVALID,163.678,VALID,0.100563,VALID,25.0858,VALID,305,VALID,0,
2011-08-12, 00:15:04,VALID,1004.08,VALID,0,INVALID,163.609,VALID,0.100563,VALID,25.0644,VALID,305,VALID,0,
2011-08-12, 00:16:04,VALID,1004.11,VALID,0,INVALID,163.632,VALID,0.100563,VALID,25.0431,VALID,302,VALID,0,
2011-08-12, 00:17:04,VALID,1004.08,VALID,0,INVALID,163.655,VALID,0.100563,VALID,25.0644,VALID,298,VALID,0,
2011-08-12, 00:18:04,VALID,1004.05,VALID,0,INVALID,163.639,VALID,0.100563,VALID,25.0644,VALID,292,VALID,0,
2011-08-12, 00:19:04,VALID,1004.07,VALID,0,INVALID,163.632,VALID,0,VALID,25.0644,VALID,286,VALID,0,
2011-08-12, 00:20:04,VALID,1004.07,VALID,0,INVALID,163.632,VALID,0,VALID,25.0839,VALID,297,VALID,0,
2011-08-12, 00:21:04,VALID,1004.07,VALID,0,INVALID,163.639,VALID,0,VALID,25.0644,VALID,281,VALID,0,
2011-08-12, 00:22:04,VALID,1004.05,VALID,0,INVALID,162.221,VALID,0,VALID,25.045,VALID,294,VALID,0,
2011-08-12, 00:23:04,VALID,1004.03,VALID,0,INVALID,163.563,VALID,0,VALID,25.0644,VALID,293,VALID,0,
2011-08-12, 00:24:04,VALID,1004.02,VALID,0,INVALID,150.388,VALID,0,VALID,25.0663,VALID,281,VALID,0,
2011-08-12, 00:25:04,VALID,1004.05,VALID,0,INVALID,142.126,VALID,0,VALID,25.0663,VALID,283,VALID,0,
2011-08-12, 00:26:04,VALID,1004.07,VALID,0,INVALID,138.609,VALID,0,VALID,25.0644,VALID,3,VALID,0,
2011-08-12, 00:27:04,VALID,1004.07,VALID,0,INVALID,127.128,VALID,0,VALID,25.0644,VALID,356,VALID,0,
2011-08-12, 00:28:04,VALID,1004.1,VALID,0,INVALID,126.891,VALID,0,VALID,25.0644,VALID,336,VALID,0,
2011-08-12, 00:29:04,VALID,1004.05,VALID,0,INVALID,122.894,VALID,0,VALID,25.0644,VALID,343,VALID,0,
2011-08-12, 00:30:04,VALID,1004.05,VALID,0,INVALID,121.932,VALID,0,VALID,25.0644,VALID,313,VALID,0,
2011-08-12, 00:31:04,VALID,1004.02,VALID,0,INVALID,117.874,VALID,0,VALID,25.0663,VALID,326,VALID,0,
2011-08-12, 00:32:04,VALID,1003.98,VALID,0,INVALID,114.738,VALID,0,VALID,25.0644,VALID,274,VALID,0,
2011-08-12, 00:33:04,VALID,1003.99,VALID,0,INVALID,112.045,VALID,0,VALID,25.045,VALID,263,VALID,0,
2011-08-12, 00:34:04,VALID,1003.96,VALID,0,INVALID,111.893,VALID,0,VALID,25.045,VALID,3,VALID,0,
2011-08-12, 00:35:04,VALID,1003.97,VALID,0,INVALID,110.657,VALID,0,VALID,25.045,VALID,306,VALID,0,
2011-08-12, 00:36:04,VALID,1003.94,VALID,0,INVALID,111.237,VALID,0,VALID,25.045,VALID,309,VALID,0,
2011-08-12, 00:37:04,VALID,1003.95,VALID,0,INVALID,110.024,VALID,0,VALID,25.0255,VALID,338,VALID,0,
2011-08-12, 00:38:04,VALID,1003.94,VALID,0,INVALID,109.131,VALID,0,VALID,25.0255,VALID,340,VALID,0,
2011-08-12, 00:39:04,VALID,1003.93,VALID,0,INVALID,109.368,VALID,0,VALID,25.0255,VALID,349,VALID,0,
2011-08-12, 00:40:04,VALID,1003.94,VALID,0,INVALID,110.306,VALID,0,VALID,25.0255,VALID,343,VALID,0,
2011-08-12, 00:41:04,VALID,1003.9,VALID,0,INVALID,113.472,VALID,0,VALID,25.0079,VALID,350,VALID,0,
2011-08-12, 00:42:04,VALID,1003.91,VALID,0,INVALID,114.532,VALID,0,VALID,24.9671,VALID,350,VALID,0,
2011-08-12, 00:43:04,VALID,1003.89,VALID,0,INVALID,113.693,VALID,0,VALID,24.9885,VALID,352,VALID,0,
2011-08-12, 00:44:04,VALID,1003.87,VALID,0,INVALID,111.557,VALID,0,VALID,24.969,VALID,349,VALID,0,
2011-08-12, 00:45:04,VALID,1003.87,VALID,0,INVALID,113.655,VALID,0,VALID,24.9476,VALID,348,VALID,0,
2011-08-12, 00:46:04,VALID,1003.89,VALID,0,INVALID,112.259,VALID,0,VALID,24.9282,VALID,352,VALID,0,
2011-08-12, 00:47:04,VALID,1003.85,VALID,0,INVALID,115.219,VALID,0,VALID,24.9282,VALID,352,VALID,0,
2011-08-12, 00:48:04,VALID,1003.87,VALID,0,INVALID,115.257,VALID,0,VALID,24.93,VALID,353,VALID,0,
2011-08-12, 00:49:04,VALID,1003.86,VALID,0,INVALID,116.447,VALID,0.100563,VALID,24.9087,VALID,353,VALID,0,
2011-08-12, 00:50:04,VALID,1003.82,VALID,0,INVALID,115.593,VALID,0,VALID,24.9087,VALID,350,VALID,0,
2011-08-12, 00:51:04,VALID,1003.87,VALID,0,INVALID,113.998,VALID,0,VALID,24.8892,VALID,318,VALID,0,
2011-08-12, 00:52:04,VALID,1003.84,VALID,0,INVALID,116.386,VALID,0,VALID,24.9087,VALID,318,VALID,0,
2011-08-12, 00:53:04,VALID,1003.84,VALID,0,INVALID,115.928,VALID,0,VALID,24.9106,VALID,318,VALID,0,
2011-08-12, 00:54:04,VALID,1003.83,VALID,0,INVALID,116.455,VALID,0,VALID,24.9106,VALID,318,VALID,0,
2011-08-12, 00:55:04,VALID,1003.83,VALID,0,INVALID,114.311,VALID,0.100563,VALID,24.8892,VALID,309,VALID,0,
2011-08-12, 00:56:04,VALID,1003.79,VALID,0,INVALID,111.969,VALID,0,VALID,24.8892,VALID,285,VALID,0,
2011-08-12, 00:57:04,VALID,1003.81,VALID,0,INVALID,111.656,VALID,0,VALID,24.9282,VALID,285,VALID,0,
2011-08-12, 00:58:04,VALID,1003.78,VALID,0,INVALID,110.176,VALID,0,VALID,24.9282,VALID,285,VALID,0,
2011-08-12, 00:59:04,VALID,1003.75,VALID,0,INVALID,110.031,VALID,0,VALID,24.9282,VALID,285,VALID,0,
2011-08-12, 01:00:04,VALID,1003.75,VALID,0,INVALID,110.054,VALID,0,VALID,24.9282,VALID,284,VALID,0,
2011-08-12, 01:01:04,VALID,1003.74,VALID,0,INVALID,109.864,VALID,0,VALID,24.9476,VALID,284,VALID,0,
2011-08-12, 01:02:04,VALID,1003.68,VALID,0,INVALID,109.574,VALID,0,VALID,24.9263,VALID,343,VALID,0,
2011-08-12, 01:03:04,VALID,1003.69,VALID,0,VALID,104,VALID,0,VALID,24.9087,VALID,337,VALID,0,
2011-08-12, 01:04:04,VALID,1003.63,VALID,0,INVALID,110.413,VALID,0.100563,VALID,24.9282,VALID,337,VALID,0,
2011-08-12, 01:05:04,VALID,1003.64,VALID,0,INVALID,109.162,VALID,0.100563,VALID,24.9087,VALID,337,VALID,0,
2011-08-12, 01:06:04,VALID,1003.63,VALID,0,INVALID,110.84,VALID,0,VALID,24.8892,VALID,347,VALID,0,
2011-08-12, 01:07:04,VALID,1003.64,VALID,0,INVALID,113.769,VALID,0.100563,VALID,24.8697,VALID,347,VALID,0,
2011-08-12, 01:08:04,VALID,1003.66,VALID,0,INVALID,119.773,VALID,0.100563,VALID,24.8308,VALID,347,VALID,0,
2011-08-12, 01:09:04,VALID,1003.62,VALID,0,INVALID,119.743,VALID,0.100563,VALID,24.7724,VALID,355,VALID,0,
2011-08-12, 01:10:04,VALID,1003.61,VALID,0,INVALID,118.652,VALID,0,VALID,24.7335,VALID,359,VALID,0,
2011-08-12, 01:11:04,VALID,1003.6,VALID,0,INVALID,118.225,VALID,0,VALID,24.7529,VALID,338,VALID,0,
2011-08-12, 01:12:04,VALID,1003.59,VALID,0,INVALID,118.591,VALID,0,VALID,24.7335,VALID,324,VALID,0,
2011-08-12, 01:13:04,VALID,1003.59,VALID,0,INVALID,117.05,VALID,0,VALID,24.7548,VALID,318,VALID,0,
2011-08-12, 01:14:04,VALID,1003.55,VALID,0,INVALID,116.096,VALID,0,VALID,24.7335,VALID,314,VALID,0,
2011-08-12, 01:15:04,VALID,1003.58,VALID,0,INVALID,114.54,VALID,0,VALID,24.7548,VALID,315,VALID,0,
2011-08-12, 01:16:04,VALID,1003.57,VALID,0,INVALID,112.114,VALID,0,VALID,24.7335,VALID,326,VALID,0,
2011-08-12, 01:17:04,VALID,1003.55,VALID,0,INVALID,112.45,VALID,0,VALID,24.7529,VALID,257,VALID,0,
2011-08-12, 01:18:04,VALID,1003.55,VALID,0,INVALID,110.726,VALID,0,VALID,24.7724,VALID,253,VALID,0,
2011-08-12, 01:19:04,VALID,1003.55,VALID,0,INVALID,110.451,VALID,0,VALID,24.8113,VALID,307,VALID,0,
2011-08-12, 01:20:04,VALID,1003.53,VALID,0,VALID,104,VALID,0,VALID,24.8522,VALID,6,VALID,0,
2011-08-12, 01:21:04,VALID,1003.53,VALID,0,VALID,104,VALID,0,VALID,24.8522,VALID,303,VALID,0,
2011-08-12, 01:22:04,VALID,1003.49,VALID,0,VALID,104,VALID,0,VALID,24.8697,VALID,339,VALID,0,
2011-08-12, 01:23:04,VALID,1003.51,VALID,0,VALID,104,VALID,0,VALID,24.8892,VALID,339,VALID,0,
2011-08-12, 01:24:04,VALID,1003.45,VALID,0,VALID,104,VALID,0,VALID,24.9106,VALID,355,VALID,0,
2011-08-12, 01:25:04,VALID,1003.48,VALID,0,VALID,104,VALID,0,VALID,24.9087,VALID,355,VALID,0,
2011-08-12, 01:26:04,VALID,1003.45,VALID,0,VALID,104,VALID,0,VALID,24.9495,VALID,298,VALID,0,
2011-08-12, 01:27:04,VALID,1003.43,VALID,0,VALID,104,VALID,0,VALID,24.9282,VALID,299,VALID,0,
2011-08-12, 01:28:04,VALID,1003.42,VALID,0,VALID,104,VALID,0,VALID,24.969,VALID,292,VALID,0,
2011-08-12, 01:29:04,VALID,1003.4,VALID,0,VALID,104,VALID,0,VALID,24.9476,VALID,268,VALID,0,
2011-08-12, 01:30:04,VALID,1003.4,VALID,0,VALID,104,VALID,0,VALID,24.9885,VALID,268,VALID,0,
2011-08-12, 01:31:04,VALID,1003.45,VALID,0,VALID,104,VALID,0.100563,VALID,24.9457,VALID,269,VALID,0,
2011-08-12, 01:32:04,VALID,1003.45,VALID,0,VALID,104,VALID,0,VALID,24.9866,VALID,319,VALID,0,
2011-08-12, 01:33:04,VALID,1003.45,VALID,0,VALID,104,VALID,0.100563,VALID,24.9652,VALID,306,VALID,0,
2011-08-12, 01:34:04,VALID,1003.43,VALID,0,VALID,104,VALID,0,VALID,25.006,VALID,319,VALID,0,
2011-08-12, 01:35:04,VALID,1003.43,VALID,0,VALID,104,VALID,0.100563,VALID,25.0041,VALID,348,VALID,0,
2011-08-12, 01:36:04,VALID,1003.41,VALID,0,VALID,104,VALID,0.100563,VALID,25.0255,VALID,285,VALID,0,
2011-08-12, 01:37:04,VALID,1003.41,VALID,0,VALID,104,VALID,0,VALID,25.0255,VALID,272,VALID,0,
2011-08-12, 01:38:04,VALID,1003.41,VALID,0,VALID,104,VALID,0,VALID,25.0255,VALID,339,VALID,0,
2011-08-12, 01:39:04,VALID,1003.42,VALID,0,VALID,104,VALID,0,VALID,25.0663,VALID,304,VALID,0,
2011-08-12, 01:40:04,VALID,1003.44,VALID,0,INVALID,109.299,VALID,0,VALID,25.0644,VALID,279,VALID,0,
2011-08-12, 01:41:04,VALID,1003.45,VALID,0,VALID,104,VALID,0,VALID,25.1053,VALID,309,VALID,0,
2011-08-12, 01:42:04,VALID,1003.45,VALID,0,VALID,104,VALID,0,VALID,25.1034,VALID,282,VALID,0,
2011-08-12, 01:43:04,VALID,1003.47,VALID,0,INVALID,110.573,VALID,0,VALID,25.1229,VALID,292,VALID,0,
2011-08-12, 01:44:04,VALID,1003.53,VALID,0,VALID,104,VALID,0,VALID,25.1229,VALID,287,VALID,0,
2011-08-12, 01:45:04,VALID,1003.59,VALID,0,VALID,104,VALID,0,VALID,25.1618,VALID,302,VALID,0,
2011-08-12, 01:46:04,VALID,1003.64,VALID,0,VALID,104,VALID,0,VALID,25.1832,VALID,277,VALID,0,
2011-08-12, 01:47:04,VALID,1003.64,VALID,0,VALID,104,VALID,0,VALID,25.1618,VALID,336,VALID,0,
2011-08-12, 01:48:04,VALID,1003.67,VALID,0,VALID,104,VALID,0,VALID,25.1813,VALID,326,VALID,0,
2011-08-12, 01:49:04,VALID,1003.63,VALID,0,VALID,102.425,VALID,0,VALID,25.1015,VALID,352,VALID,0,
2011-08-12, 01:50:04,VALID,1003.65,VALID,0,VALID,102.639,VALID,0,VALID,25.1034,VALID,222,VALID,0,
2011-08-12, 01:51:04,VALID,1003.68,VALID,0,VALID,101.251,VALID,0,VALID,25.0644,VALID,288,VALID,0,
2011-08-12, 01:52:04,VALID,1003.7,VALID,0,VALID,102.868,VALID,0,VALID,25.0255,VALID,290,VALID,0,
2011-08-12, 01:53:04,VALID,1003.71,VALID,0,VALID,102.799,VALID,0,VALID,24.9652,VALID,308,VALID,0,
2011-08-12, 01:54:04,VALID,1003.7,VALID,0,VALID,104,VALID,0,VALID,24.8892,VALID,8,VALID,0,
2011-08-12, 01:55:04,VALID,1003.74,VALID,0,VALID,102.296,VALID,0,VALID,24.8113,VALID,353,VALID,0,
2011-08-12, 01:56:04,VALID,1003.74,VALID,0,VALID,103.562,VALID,0,VALID,24.7724,VALID,278,VALID,0,
2011-08-12, 01:57:04,VALID,1003.78,VALID,0,VALID,103.066,VALID,0,VALID,24.7335,VALID,328,VALID,0,
2011-08-12, 01:58:04,VALID,1003.77,VALID,0,VALID,103.364,VALID,0,VALID,24.6964,VALID,290,VALID,0,
2011-08-12, 01:59:04,VALID,1003.82,VALID,0,VALID,104,VALID,0,VALID,24.675,VALID,269,VALID,0,
2011-08-12, 02:00:04,VALID,1003.81,VALID,0,VALID,103.86,VALID,0,VALID,24.6361,VALID,317,VALID,0,
2011-08-12, 02:01:04,VALID,1003.85,VALID,0,VALID,103.738,VALID,0,VALID,24.6185,VALID,283,VALID,0,
2011-08-12, 02:02:04,VALID,1003.87,VALID,0,VALID,104,VALID,0,VALID,24.5582,VALID,260,VALID,0,
2011-08-12, 02:03:04,VALID,1003.82,VALID,0,VALID,104,VALID,0,VALID,24.5388,VALID,293,VALID,0,
2011-08-12, 02:04:04,VALID,1003.83,VALID,0,VALID,104,VALID,0,VALID,24.4998,VALID,321,VALID,0,
2011-08-12, 02:05:04,VALID,1003.83,VALID,0,VALID,104,VALID,0,VALID,24.4804,VALID,270,VALID,0,
2011-08-12, 02:06:04,VALID,1003.8,VALID,0,INVALID,110.504,VALID,0,VALID,24.4804,VALID,258,VALID,0,
2011-08-12, 02:07:04,VALID,1003.79,VALID,0,INVALID,115.379,VALID,0,VALID,24.4609,VALID,289,VALID,0,
2011-08-12, 02:08:04,VALID,1003.79,VALID,0,INVALID,123.771,VALID,0,VALID,24.4238,VALID,286,VALID,0,
2011-08-12, 02:09:04,VALID,1003.79,VALID,0,INVALID,141.767,VALID,0,VALID,24.3636,VALID,284,VALID,0,
2011-08-12, 02:10:04,VALID,1003.83,VALID,0,INVALID,142.576,VALID,0,VALID,24.3246,VALID,288,VALID,0,
2011-08-12, 02:11:04,VALID,1003.77,VALID,0,INVALID,138.716,VALID,0.100563,VALID,24.3033,VALID,252,VALID,0,
2011-08-12, 02:12:04,VALID,1003.81,VALID,0,INVALID,120.262,VALID,0,VALID,24.3052,VALID,351,VALID,0,
2011-08-12, 02:13:04,VALID,1003.77,VALID,0,INVALID,111.481,VALID,0.100563,VALID,24.2857,VALID,296,VALID,0,
2011-08-12, 02:14:04,VALID,1003.82,VALID,0,INVALID,111.519,VALID,0,VALID,24.2857,VALID,290,VALID,0,
2011-08-12, 02:15:04,VALID,1003.8,VALID,0,INVALID,109.947,VALID,0,VALID,24.2857,VALID,311,VALID,0,
2011-08-12, 02:16:04,VALID,1003.78,VALID,0,VALID,104,VALID,0,VALID,24.2662,VALID,306,VALID,0,
2011-08-12, 02:17:04,VALID,1003.79,VALID,0,VALID,104,VALID,0,VALID,24.2662,VALID,273,VALID,0,
2011-08-12, 02:18:04,VALID,1003.73,VALID,0,VALID,104,VALID,0,VALID,24.2449,VALID,251,VALID,0,
2011-08-12, 02:19:04,VALID,1003.75,VALID,0,VALID,104,VALID,0,VALID,24.2255,VALID,288,VALID,0,
2011-08-12, 02:20:04,VALID,1003.76,VALID,0,VALID,104,VALID,0,VALID,24.2875,VALID,321,VALID,0,
2011-08-12, 02:21:04,VALID,1003.72,VALID,0,VALID,102.944,VALID,0,VALID,24.2468,VALID,292,VALID,0,
2011-08-12, 02:22:04,VALID,1003.72,VALID,0,VALID,102.677,VALID,0,VALID,24.2662,VALID,301,VALID,0,
2011-08-12, 02:23:04,VALID,1003.72,VALID,0,VALID,102.25,VALID,0,VALID,24.2662,VALID,294,VALID,0,
2011-08-12, 02:24:04,VALID,1003.68,VALID,0,VALID,101.823,VALID,0,VALID,24.2681,VALID,288,VALID,0,
2011-08-12, 02:25:04,VALID,1003.74,VALID,0,VALID,103.15,VALID,0,VALID,24.2468,VALID,278,VALID,0,
2011-08-12, 02:26:04,VALID,1003.74,VALID,0,VALID,102.189,VALID,0,VALID,24.2078,VALID,288,VALID,0,
2011-08-12, 02:27:04,VALID,1003.74,VALID,0,VALID,102.639,VALID,0,VALID,24.2078,VALID,288,VALID,0,
2011-08-12, 02:28:04,VALID,1003.75,VALID,0,VALID,102.425,VALID,0,VALID,24.1884,VALID,288,VALID,0,
2011-08-12, 02:29:04,VALID,1003.71,VALID,0,VALID,102.639,VALID,0,VALID,24.1689,VALID,303,VALID,0,
2011-08-12, 02:30:04,VALID,1003.75,VALID,0,VALID,103.074,VALID,0,VALID,24.1707,VALID,290,VALID,0,
2011-08-12, 02:31:04,VALID,1003.73,VALID,0,VALID,104,VALID,0,VALID,24.1105,VALID,330,VALID,0,
2011-08-12, 02:32:04,VALID,1003.75,VALID,0,VALID,104,VALID,0,VALID,24.091,VALID,268,VALID,0,
2011-08-12, 02:33:04,VALID,1003.73,VALID,0,VALID,104,VALID,0,VALID,24.0521,VALID,308,VALID,0,
2011-08-12, 02:34:04,VALID,1003.73,VALID,0,VALID,104,VALID,0,VALID,24.0345,VALID,311,VALID,0,
2011-08-12, 02:35:04,VALID,1003.7,VALID,0,VALID,104,VALID,0,VALID,23.9937,VALID,273,VALID,0,
2011-08-12, 02:36:04,VALID,1003.71,VALID,0,INVALID,111.45,VALID,0,VALID,23.9353,VALID,293,VALID,0,
2011-08-12, 02:37:04,VALID,1003.69,VALID,0,INVALID,119.209,VALID,0,VALID,23.8964,VALID,283,VALID,0,
2011-08-12, 02:38:04,VALID,1003.65,VALID,0,INVALID,127.112,VALID,0,VALID,23.8769,VALID,299,VALID,0,
2011-08-12, 02:39:04,VALID,1003.65,VALID,0,INVALID,140.417,VALID,0,VALID,23.8982,VALID,287,VALID,0,
2011-08-12, 02:40:04,VALID,1003.64,VALID,0,INVALID,160.649,VALID,0,VALID,23.8185,VALID,291,VALID,0,
2011-08-12, 02:41:04,VALID,1003.63,VALID,0,INVALID,163.685,VALID,0,VALID,23.7796,VALID,338,VALID,0,
2011-08-12, 02:42:04,VALID,1003.62,VALID,0,INVALID,163.746,VALID,0,VALID,23.7601,VALID,297,VALID,0,
2011-08-12, 02:43:04,VALID,1003.62,VALID,0,INVALID,163.731,VALID,0,VALID,23.7407,VALID,261,VALID,0,
2011-08-12, 02:44:05,VALID,1003.63,VALID,0,INVALID,163.731,VALID,0,VALID,23.7017,VALID,292,VALID,0,
2011-08-12, 02:45:05,VALID,1003.64,VALID,0,INVALID,163.723,VALID,0,VALID,23.6026,VALID,286,VALID,0,
2011-08-12, 02:46:05,VALID,1003.65,VALID,0,INVALID,163.754,VALID,0,VALID,23.546,VALID,275,VALID,0,
2011-08-12, 02:47:05,VALID,1003.62,VALID,0,INVALID,163.739,VALID,0,VALID,23.4682,VALID,285,VALID,0,
2011-08-12, 02:48:05,VALID,1003.63,VALID,0,INVALID,163.792,VALID,0,VALID,23.4098,VALID,297,VALID,0,
2011-08-12, 02:49:05,VALID,1003.59,VALID,0.5,INVALID,163.784,VALID,0,VALID,23.3514,VALID,311,VALID,0,
2011-08-12, 02:50:05,VALID,1003.59,VALID,0,INVALID,163.8,VALID,0,VALID,23.2736,VALID,265,VALID,0,
2011-08-12, 02:51:05,VALID,1003.59,VALID,0,INVALID,163.754,VALID,0,VALID,23.1551,VALID,301,VALID,0,
2011-08-12, 02:52:05,VALID,1003.6,VALID,0.5,INVALID,163.784,VALID,0,VALID,23.0984,VALID,300,VALID,0,
2011-08-12, 02:53:05,VALID,1003.63,VALID,0,INVALID,163.815,VALID,0,VALID,23.0206,VALID,296,VALID,0,
2011-08-12, 02:54:05,VALID,1003.6,VALID,0,INVALID,163.8,VALID,0,VALID,22.9622,VALID,292,VALID,0,
2011-08-12, 02:55:05,VALID,1003.55,VALID,0.5,INVALID,163.823,VALID,0,VALID,22.9039,VALID,281,VALID,0,
2011-08-12, 02:56:05,VALID,1003.59,VALID,0,INVALID,163.823,VALID,0,VALID,22.8455,VALID,280,VALID,0,
2011-08-12, 02:57:05,VALID,1003.59,VALID,0,INVALID,163.815,VALID,0.100563,VALID,22.8243,VALID,274,VALID,0,
2011-08-12, 02:58:05,VALID,1003.63,VALID,0,INVALID,163.807,VALID,0,VALID,22.8066,VALID,287,VALID,0,
2011-08-12, 02:59:05,VALID,1003.6,VALID,0.5,INVALID,163.807,VALID,0,VALID,22.7854,VALID,304,VALID,0,
2011-08-12, 03:00:05,VALID,1003.63,VALID,0,INVALID,163.8,VALID,0,VALID,22.826,VALID,272,VALID,0,
2011-08-12, 03:01:05,VALID,1003.61,VALID,0,INVALID,163.823,VALID,0,VALID,22.8455,VALID,254,VALID,0,
2011-08-12, 03:02:05,VALID,1003.58,VALID,0,INVALID,163.876,VALID,0.100563,VALID,22.8243,VALID,302,VALID,0,
2011-08-12, 03:03:05,VALID,1003.6,VALID,0,INVALID,163.815,VALID,0,VALID,22.826,VALID,284,VALID,0,
2011-08-12, 03:04:05,VALID,1003.57,VALID,0,INVALID,163.838,VALID,0,VALID,22.8455,VALID,255,VALID,0,
2011-08-12, 03:05:05,VALID,1003.58,VALID,0,INVALID,163.922,VALID,0,VALID,22.826,VALID,294,VALID,0,
2011-08-12, 03:06:05,VALID,1003.58,VALID,0,INVALID,163.784,VALID,0,VALID,22.8649,VALID,259,VALID,0,
2011-08-12, 03:07:05,VALID,1003.59,VALID,0.5,INVALID,163.815,VALID,0,VALID,22.8438,VALID,302,VALID,0,
2011-08-12, 03:08:05,VALID,1003.58,VALID,0,INVALID,163.83,VALID,0,VALID,22.8438,VALID,287,VALID,0,
2011-08-12, 03:09:05,VALID,1003.6,VALID,0,INVALID,163.792,VALID,0.100563,VALID,22.8827,VALID,277,VALID,0,
2011-08-12, 03:10:05,VALID,1003.6,VALID,0,INVALID,163.8,VALID,0,VALID,22.8844,VALID,274,VALID,0,
2011-08-12, 03:11:05,VALID,1003.58,VALID,0,INVALID,163.861,VALID,0,VALID,22.8632,VALID,301,VALID,0,
2011-08-12, 03:12:05,VALID,1003.56,VALID,0.5,INVALID,163.8,VALID,0,VALID,22.9039,VALID,1,VALID,0,
2011-08-12, 03:13:05,VALID,1003.57,VALID,0,INVALID,163.792,VALID,0,VALID,22.9233,VALID,286,VALID,0,
2011-08-12, 03:14:05,VALID,1003.55,VALID,0,INVALID,163.792,VALID,0,VALID,22.964,VALID,289,VALID,0,
2011-08-12, 03:15:05,VALID,1003.53,VALID,0,INVALID,163.83,VALID,0,VALID,22.9428,VALID,301,VALID,0,
2011-08-12, 03:16:05,VALID,1003.55,VALID,0.5,INVALID,163.807,VALID,0,VALID,22.9622,VALID,315,VALID,0,
2011-08-12, 03:17:05,VALID,1003.49,VALID,0,INVALID,163.792,VALID,0,VALID,23.0224,VALID,330,VALID,0,
2011-08-12, 03:18:05,VALID,1003.47,VALID,0,INVALID,163.777,VALID,0.100563,VALID,23.0401,VALID,340,VALID,0,
2011-08-12, 03:19:05,VALID,1003.44,VALID,0,INVALID,163.823,VALID,0,VALID,23.0206,VALID,346,VALID,0,
2011-08-12, 03:20:05,VALID,1003.43,VALID,0,INVALID,163.792,VALID,0,VALID,22.9994,VALID,353,VALID,0,
2011-08-12, 03:21:05,VALID,1003.43,VALID,0,INVALID,163.838,VALID,0,VALID,23.0206,VALID,352,VALID,0,
2011-08-12, 03:22:05,VALID,1003.43,VALID,0,INVALID,163.8,VALID,0,VALID,23.0012,VALID,360,VALID,0,
2011-08-12, 03:23:05,VALID,1003.38,VALID,0,INVALID,163.807,VALID,0.100563,VALID,22.98,VALID,326,VALID,0,
2011-08-12, 03:24:05,VALID,1003.37,VALID,0.5,INVALID,163.861,VALID,0.100563,VALID,22.9605,VALID,349,VALID,0,
2011-08-12, 03:25:05,VALID,1003.32,VALID,0,INVALID,163.807,VALID,0,VALID,22.9622,VALID,350,VALID,0,
2011-08-12, 03:26:05,VALID,1003.32,VALID,0,INVALID,163.792,VALID,0,VALID,22.9216,VALID,349,VALID,0,
2011-08-12, 03:27:05,VALID,1003.27,VALID,0,INVALID,163.8,VALID,0.100563,VALID,22.9216,VALID,336,VALID,0,
2011-08-12, 03:28:05,VALID,1003.28,VALID,0,INVALID,163.807,VALID,0,VALID,22.8844,VALID,348,VALID,0,
2011-08-12, 03:29:05,VALID,1003.24,VALID,0,INVALID,163.838,VALID,0,VALID,22.9039,VALID,356,VALID,0,
2011-08-12, 03:30:05,VALID,1003.22,VALID,0,INVALID,163.777,VALID,0,VALID,22.8649,VALID,344,VALID,0,
2011-08-12, 03:31:05,VALID,1003.23,VALID,0,INVALID,163.807,VALID,0,VALID,22.9056,VALID,294,VALID,0,
2011-08-12, 03:32:05,VALID,1003.21,VALID,0,INVALID,163.807,VALID,0,VALID,22.9056,VALID,308,VALID,0,
2011-08-12, 03:33:05,VALID,1003.23,VALID,0,INVALID,163.784,VALID,0,VALID,22.8844,VALID,360,VALID,0,
2011-08-12, 03:34:05,VALID,1003.24,VALID,0,INVALID,163.792,VALID,0,VALID,22.8861,VALID,344,VALID,0,
2011-08-12, 03:35:05,VALID,1003.24,VALID,0,INVALID,163.792,VALID,0,VALID,22.8649,VALID,344,VALID,0,
2011-08-12, 03:36:05,VALID,1003.26,VALID,0,INVALID,163.815,VALID,0,VALID,22.8649,VALID,3,VALID,0,
2011-08-12, 03:37:05,VALID,1003.21,VALID,0,INVALID,163.792,VALID,0,VALID,22.8455,VALID,358,VALID,0,
2011-08-12, 03:38:05,VALID,1003.24,VALID,0,INVALID,163.899,VALID,0,VALID,22.8455,VALID,350,VALID,0,
2011-08-12, 03:39:05,VALID,1003.25,VALID,0,INVALID,163.807,VALID,0,VALID,22.8472,VALID,353,VALID,0,
2011-08-12, 03:40:05,VALID,1003.28,VALID,0,INVALID,163.823,VALID,0,VALID,22.8278,VALID,319,VALID,0,
2011-08-12, 03:41:05,VALID,1003.29,VALID,0,INVALID,163.792,VALID,0,VALID,22.826,VALID,349,VALID,0,
2011-08-12, 03:42:05,VALID,1003.32,VALID,0,INVALID,163.922,VALID,0,VALID,22.8649,VALID,265,VALID,0,
2011-08-12, 03:43:05,VALID,1003.28,VALID,0,INVALID,163.899,VALID,0,VALID,22.8649,VALID,266,VALID,0,
2011-08-12, 03:44:05,VALID,1003.29,VALID,0,INVALID,163.815,VALID,0,VALID,22.8649,VALID,32,VALID,0,
2011-08-12, 03:45:05,VALID,1003.3,VALID,0,INVALID,163.815,VALID,0,VALID,22.9056,VALID,346,VALID,0,
2011-08-12, 03:46:05,VALID,1003.31,VALID,0,INVALID,163.8,VALID,0,VALID,22.9056,VALID,357,VALID,0,
2011-08-12, 03:47:05,VALID,1003.31,VALID,0,INVALID,163.815,VALID,0,VALID,22.8861,VALID,358,VALID,0,
2011-08-12, 03:48:05,VALID,1003.28,VALID,0,INVALID,163.815,VALID,0,VALID,22.8649,VALID,351,VALID,0,
2011-08-12, 03:49:05,VALID,1003.25,VALID,0,INVALID,163.83,VALID,0,VALID,22.8649,VALID,340,VALID,0,
2011-08-12, 03:50:05,VALID,1003.24,VALID,0,INVALID,163.823,VALID,0,VALID,22.8667,VALID,351,VALID,0,
2011-08-12, 03:51:05,VALID,1003.26,VALID,0,INVALID,163.8,VALID,0,VALID,22.826,VALID,357,VALID,0,
2011-08-12, 03:52:05,VALID,1003.22,VALID,0,INVALID,163.823,VALID,0,VALID,22.8667,VALID,345,VALID,0,
2011-08-12, 03:53:05,VALID,1003.18,VALID,0,INVALID,163.83,VALID,0,VALID,22.8243,VALID,5,VALID,0,
2011-08-12, 03:54:05,VALID,1003.15,VALID,0,INVALID,163.8,VALID,0,VALID,22.8455,VALID,360,VALID,0,
2011-08-12, 03:55:05,VALID,1003.14,VALID,0,INVALID,163.815,VALID,0,VALID,22.8649,VALID,353,VALID,0,
2011-08-12, 03:56:05,VALID,1003.13,VALID,0,INVALID,163.838,VALID,0,VALID,22.8649,VALID,351,VALID,0,